#timestamp,LO_Frequency,Hit,StdDev 
1592506815.7,286046998.9,N
1592506835.5,286046998.4,N
1592506855.4,286046996.5,Y
1592506875.2,286046998.1,P
1592506895.1,286047000.7,P
1592506896.0,286047000.7,N
1592506915.8,286046999.1,N
1592506935.6,286046998.8,N
1592506955.5,286046998.7,N
1592506975.3,286046999.3,N
1592506995.2,286046998.2,N
1592507015.9,286046999.0,N
1592507035.7,286046999.2,N
1592507055.6,286046998.2,N
1592507075.4,286046998.3,N
1592507095.2,286047000.3,N
1592507115.1,286047000.6,N
1592507116.0,286047000.6,N
1592507135.8,286046998.8,N
1592507155.7,286047000.7,N
1592507175.5,286047001.1,N
1592507195.3,286047001.1,N
1592507215.2,286047000.9,N
1592507235.0,286047001.6,N
1592507235.9,286047001.6,N
1592507255.8,286047001.2,N
1592507275.6,286046999.4,N
1592507295.4,286047000.4,N
1592507315.3,286047002.4,N
1592507335.1,286047006.0,Y
1592507355.9,286047002.0,P
1592507375.7,286047003.8,P
1592507395.5,286047003.9,N
1592507415.4,286047001.6,N
1592507435.2,286047001.6,N
1592507455.0,286047003.7,N
1592507456.0,286047003.7,N
1592507475.8,286047002.6,N
1592507495.6,286047002.6,N
1592507515.5,286047002.6,N
1592507535.3,286047001.7,N
1592507555.1,286047003.3,N
1592507575.9,286047003.1,N
1592507595.7,286047003.8,Y
1592507615.6,286047000.7,P
1592507635.4,286047002.4,N
1592507655.2,286047000.7,N
1592507675.1,286047000.8,N
1592507676.0,286047000.8,N
1592507695.8,286046998.4,N
1592507715.7,286047002.3,N
1592507735.5,286047002.0,N
1592507755.3,286047002.8,N
1592507775.2,286046999.2,N
1592507795.9,286046998.2,N
1592507815.7,286046998.7,N
1592507835.6,286046998.1,N
1592507855.4,286046999.5,N
1592507875.3,286047000.6,N
1592507895.1,286046998.5,N
1592507896.0,286046998.5,N
1592507915.8,286046996.9,N
1592507935.7,286046999.0,N
1592507955.5,286046997.1,N
1592507975.3,286046997.3,N
1592507995.2,286046997.9,N
1592508015.0,286046996.5,N
1592508015.9,286046996.5,N
1592508035.8,286046997.2,N
1592508055.6,286046997.8,N
1592508075.4,286046999.0,N
1592508095.3,286046998.7,N
1592508115.1,286046998.6,N
1592508135.9,286046996.9,N
1592508155.7,286046996.5,N
1592508175.5,286046997.4,N
1592508195.4,286046999.6,N
1592508215.2,286047000.8,N
1592508235.0,286046997.3,N
1592508235.9,286046997.3,N
1592508255.8,286046996.1,N
1592508275.6,286046995.9,N
1592508295.5,286046996.2,N
1592508315.3,286046997.6,N
1592508335.1,286046998.0,N
1592508355.9,286046998.0,N
1592508375.7,286046995.8,Y
1592508395.6,286046999.4,P
1592508415.4,286046996.7,P
1592508435.2,286046996.6,P
1592508455.1,286046996.5,Y
1592508456.0,286046996.5,P
1592508475.8,286047001.2,N
1592508495.7,286047001.0,N
1592508515.5,286046998.3,N
1592508535.3,286046998.8,N
1592508555.2,286046998.7,N
1592508575.0,286046999.0,N
1592508575.9,286046999.0,N
1592508595.8,286046999.3,N
1592508615.6,286046996.8,N
1592508635.4,286046998.9,N
1592508655.3,286046996.7,N
1592508675.1,286046999.1,N
1592508695.9,286046999.3,N
1592508715.7,286046999.4,N
1592508735.5,286046997.0,N
1592508755.4,286046999.5,N
1592508775.2,286046996.9,N
1592508795.1,286046996.9,N
1592508796.0,286046996.9,N
1592508815.8,286046999.2,N
1592508835.6,286046999.0,N
1592508855.5,286046999.0,N
1592508875.3,286046998.8,N
1592508895.1,286046996.9,N
1592508915.9,286046999.0,N
1592508935.7,286046998.9,N
1592508955.6,286046998.3,N
1592508975.4,286046999.8,N
1592508995.2,286047000.3,N
1592509015.1,286046999.8,N
1592509016.0,286046999.8,N
1592509035.8,286047001.2,N
1592509055.7,286046998.5,N
1592509075.5,286047000.5,N
1592509095.3,286047000.6,N
1592509115.2,286047000.6,N
1592509135.9,286047000.8,N
1592509155.7,286046999.8,N
1592509175.6,286046998.7,N
1592509195.4,286047001.2,N
1592509215.3,286047000.6,N
1592509235.1,286047000.0,N
1592509236.0,286047000.0,N
1592509255.8,286047001.0,N
1592509275.7,286046999.8,N
1592509295.5,286047000.9,N
1592509315.3,286047000.6,N
1592509335.2,286046999.8,N
1592509355.0,286046999.9,N
1592509355.9,286046999.9,N
1592509375.8,286047001.8,N
1592509395.6,286046999.8,N
1592509415.4,286047000.9,N
1592509435.3,286047000.4,N
1592509455.1,286047001.0,N
1592509475.9,286047002.3,N
1592509495.7,286047002.0,N
1592509515.5,286047002.1,N
1592509535.4,286047002.7,Y
1592509555.2,286047001.0,P
1592509575.0,286047002.3,P
1592509575.9,286047002.3,N
1592509595.8,286047002.6,Y
1592509615.6,286047000.7,P
1592509635.5,286046999.9,N
1592509655.3,286046999.9,N
1592509675.1,286047000.0,N
1592509695.9,286047000.0,N
1592509715.7,286046999.9,N
1592509735.6,286046998.1,Y
1592509755.4,286047001.0,P
1592509775.2,286046998.2,P
1592509795.1,286047000.7,N
1592509796.0,286047000.7,N
1592509815.8,286047001.1,N
1592509835.7,286047000.4,N
1592509855.5,286047000.8,N
1592509875.3,286046998.1,N
1592509895.2,286047000.6,N
1592509915.0,286047000.3,N
1592509915.9,286047000.3,N
1592509935.7,286047000.7,N
1592509955.6,286047000.6,N
1592509975.4,286047000.3,N
1592509995.3,286046999.1,N
1592510015.1,286046999.2,N
1592510035.8,286046996.9,Y
1592510055.7,286046999.0,P
1592510075.5,286046999.2,N
1592510095.4,286046999.2,N
1592510115.2,286046998.5,Y
1592510135.0,286047000.1,P
1592510135.9,286047000.1,N
1592510155.8,286047000.3,N
1592510175.6,286047001.0,N
1592510195.5,286047002.4,Y
1592510215.3,286047002.8,P
1592510235.1,286047002.4,N
1592510255.9,286047000.6,N
1592510275.7,286047000.1,N
1592510295.6,286047002.2,N
1592510315.4,286047004.1,Y
1592510335.2,286047002.6,P
1592510355.1,286047000.7,N
1592510356.0,286047000.7,N
1592510375.8,286046998.4,N
1592510395.6,286046998.8,N
